Weather History for KIMT - September, 2012

Change the Weather History Date:

Sunday, September 9, 2012

  Actual Average Record
Temperature  
Mean Temperature 57 °F -  
Max Temperature 71 °F 71 °F 95 °F (1931)
Min Temperature 44 °F 47 °F 29 °F (1956)
Degree Days  
Heating Degree Days 8    
Growing Degree Days 7 (Base 50)    
Moisture  
Dew Point 46 °F    
Average Humidity 83    
Maximum Humidity 100    
Minimum Humidity 38    
Precipitation  
Precipitation 0.00 in - - ()
Sea Level Pressure  
Sea Level Pressure 30.02 in    
Wind  
Wind Speed 4 mph (NNW)    
Max Wind Speed 13 mph    
Max Gust Speed 21 mph    
Visibility 8 miles    
Events Fog    
Averages and records for this station are not official NWS values.
T = Trace of Precipitation, MM = Missing Value Source: NWS Daily Summary

Daily Weather History Graph

Daily Weather History Graph

Search for Another Location

Airport or City:

Trip Planner

Search our weather history database for the weather conditions in past years. The results will help you decide how hot, cold, wet, or windy it might be!

Date:

Astronomy

Sep. 09, 2012 Rise Set
Actual Time 6:23 AM CDT 7:14 PM CDT
Civil Twilight 5:53 AM CDT 7:44 PM CDT
Nautical Twilight 5:17 AM CDT 8:20 PM CDT
Astronomical Twilight 4:39 AM CDT 8:58 PM CDT
Moon No Moon Rise 3:13 PM CDT (9/9)
Length of Visible Light 13h 50m
Length of Day
12h 50m
Last Quarter, 39% of the Moon is Illuminated
Sep 9
Last Quarter
Sep 15
New
Sep 22
First Quarter
Sep 29
Full
Oct 8
Last Quarter

Hourly Weather History & Observations

Time (CDT) Temp. Windchill Dew Point Humidity Pressure Visibility Wind Dir Wind Speed Gust Speed Precip Events Conditions
12:29 AM 50.0 °F - 48.2 °F 94% 29.91 in 10.0 mi NW 4.6 mph - N/A   Partly Cloudy
12:54 AM 50.0 °F - 48.0 °F 93% 29.93 in 10.0 mi NNW 6.9 mph - N/A   Clear
1:01 AM 50.0 °F - 48.2 °F 94% 29.91 in 10.0 mi NNW 5.8 mph - N/A   Partly Cloudy
1:54 AM 46.9 °F - 46.0 °F 97% 29.94 in 9.0 mi Calm Calm - N/A   Clear
2:03 AM 46.4 °F 44.3 °F 46.4 °F 100% 29.92 in 5.0 mi NNW 4.6 mph - N/A   Partly Cloudy
2:24 AM 48.2 °F - 46.4 °F 93% 29.93 in 10.0 mi NNW 3.5 mph - N/A   Mostly Cloudy
2:54 AM 50.0 °F - 48.9 °F 96% 29.94 in 9.0 mi NW 3.5 mph - N/A   Overcast
3:18 AM 50.0 °F - 48.2 °F 94% 29.94 in 1.8 mi NNW 5.8 mph - N/A   Overcast
3:35 AM 50.0 °F - 48.2 °F 94% 29.95 in 2.0 mi NW 5.8 mph - N/A   Overcast
3:45 AM 50.0 °F - 48.2 °F 94% 29.95 in 4.0 mi NW 5.8 mph - N/A   Overcast
3:54 AM 48.9 °F - 48.0 °F 97% 29.96 in 3.0 mi NW 3.5 mph - N/A   Overcast
4:24 AM 48.2 °F - 46.4 °F 93% 29.96 in 10.0 mi Calm Calm - N/A   Scattered Clouds
4:54 AM 46.9 °F - 46.0 °F 97% 29.99 in 10.0 mi NW 3.5 mph - N/A   Clear
5:14 AM 46.4 °F - 46.4 °F 100% 29.98 in 2.0 mi Calm Calm - N/A   Clear
5:22 AM 46.4 °F 45.2 °F 46.4 °F 100% 29.98 in 10.0 mi NNW 3.5 mph - N/A   Clear
5:54 AM 46.0 °F 43.9 °F 44.1 °F 93% 30.01 in 10.0 mi NNW 4.6 mph - N/A   Clear
6:39 AM 44.6 °F - 44.6 °F 100% 30.01 in 1.2 mi Calm Calm - N/A   Clear
6:47 AM 44.6 °F - 44.6 °F 100% 30.01 in 0.5 mi Calm Calm - N/A Fog Fog
6:54 AM 44.1 °F - 44.1 °F 100% 30.04 in 0.5 mi Calm Calm - N/A Fog Fog
7:16 AM 46.4 °F - 46.4 °F 100% 30.03 in 2.5 mi Calm Calm - N/A   Clear
7:23 AM 48.2 °F - 46.4 °F 93% 30.03 in 10.0 mi Calm Calm - N/A   Clear
7:54 AM 51.1 °F - 48.9 °F 92% 30.06 in 10.0 mi Calm Calm - N/A   Clear
8:54 AM 57.0 °F - 52.0 °F 83% 30.06 in 10.0 mi NW 5.8 mph - N/A   Clear
9:54 AM 62.1 °F - 52.0 °F 70% 30.08 in 10.0 mi NW 10.4 mph - N/A   Clear
11:54 AM 66.9 °F - 46.0 °F 47% 30.09 in 10.0 mi NNW 10.4 mph - N/A   Scattered Clouds
12:54 PM 66.0 °F - 46.0 °F 48% 30.09 in 10.0 mi NNW 11.5 mph - N/A   Mostly Cloudy
1:54 PM 69.1 °F - 45.0 °F 42% 30.08 in 10.0 mi NNW 9.2 mph 18.4 mph N/A   Clear
2:54 PM 66.9 °F - 46.0 °F 47% 30.08 in 10.0 mi NW 12.7 mph 20.7 mph N/A   Mostly Cloudy
4:54 PM 70.0 °F - 43.0 °F 38% 30.09 in 10.0 mi NNW 12.7 mph - N/A   Scattered Clouds
5:54 PM 66.9 °F - 42.1 °F 40% 30.11 in 10.0 mi NW 12.7 mph - N/A   Partly Cloudy
6:54 PM 63.0 °F - 44.1 °F 50% 30.12 in 10.0 mi NW 6.9 mph - N/A   Clear
7:54 PM 55.9 °F - 44.1 °F 64% 30.12 in 10.0 mi North 3.5 mph - N/A   Clear
8:54 PM 51.1 °F - 44.1 °F 77% 30.14 in 10.0 mi Calm Calm - N/A   Clear
9:54 PM 48.9 °F - 44.1 °F 83% 30.14 in 10.0 mi Calm Calm - N/A   Clear
10:54 PM 46.9 °F - 43.0 °F 86% 30.14 in 10.0 mi Calm Calm - N/A   Clear
11:54 PM 45.0 °F - 43.0 °F 93% 30.14 in 10.0 mi Calm Calm - N/A   Clear